Location: Hylvaty SDH
(49.9612°N, 16.4057°E)
Time: 20:06:51
(UTC+01:00)

Vanguard 1 Rocket - Pass Details

Date: 09 October 2020
Orbit: 656 x 4221 km, 34.3° (Epoch: 30 October)

Event Time Altitude Azimuth Distance (km) Brightness Sun altitude
Rises 17:17:59 0° 238° (WSW) 4,089 12.8 8.0°
Reaches altitude 10° 17:20:31 10° 229° (SW) 3,441 11.9 7.6°
Maximum altitude 17:28:37 36° 165° (SSE) 2,876 10.1 6.4°
Drops below altitude 10° 17:42:58 10° 108° (ESE) 6,061 11.1 4.2°
Sets 17:49:17 0° 102° (ESE) 7,615 11.5 3.2°
